RH
3 3 3 4 4 4 4 5 8 11 17 21 24 26 27 27 27 27 26 26 26 25 25 24 24 24 24 24 23 24 25 25 25 25 25 24 22 24 26 26 26 26 26 26 25 24 22 20 17 14 10 8 6 8 10 12 18 23 24 24 19 15 15 16 19 23 24 25 29 30 30 36 40 38 34 31 30 29 28 29 28 26 25 24 24 24 25 27
4 4 4 4 5 7 10 15 21 25 28 29 30 29 29 28 28 27 26 26 25 25 24 24 24 25 24 24 25 24 24 25 25 25 26 24 23 25 27 28 28 28 28 28 28 28 27 26 24 20 16 12 10 10 12 13 16 21 24 20 13 11 13 15 19 20 19 20 22 25 28 32 34 31 28 27 26 27 28 28 27 26 27 25 25 24 25 29
5 5 6 8 12 18 24 29 31 33 32 32 31 30 29 29 28 26 26 26 25 25 24 25 25 24 24 24 24 23 23 24 25 25 25 25 25 26 27 28 28 29 29 28 29 29 29 29 27 25 22 17 14 13 13 14 17 22 25 21 14 13 16 19 20 19 17 18 19 24 26 27 28 25 24 24 23 23 23 24 24 26 27 27 28 29 31 32
9 11 15 20 27 31 33 34 34 33 32 32 31 30 29 28 27 27 26 25 24 24 23 24 23 23 24 24 25 25 24 24 23 24 24 24 25 26 27 27 27 27 28 28 29 30 30 30 30 28 25 20 15 14 13 14 19 24 25 20 17 19 23 23 21 20 20 19 20 26 27 26 26 24 24 22 22 21 21 22 23 24 24 24 26 29 31 32
19 22 27 32 34 35 34 34 33 33 32 31 30 29 28 27 27 25 25 24 22 23 22 22 22 22 23 23 24 24 23 23 21 21 22 24 24 24 25 25 25 25 26 27 27 29 30 30 30 28 26 22 17 14 14 15 17 20 19 17 18 22 24 23 20 20 22 22 21 25 27 27 26 24 23 22 21 21 22 23 23 23 22 22 23 25 28 31
28 30 33 34 34 34 34 33 33 32 31 30 29 28 27 25 24 23 22 22 21 22 22 22 21 21 20 21 22 23 24 24 23 24 25 25 25 25 25 25 25 26 26 27 28 28 29 28 27 25 24 21 18 16 14 15 15 16 15 15 17 19 20 19 19 21 23 23 23 23 24 24 23 22 21 21 22 22 23 24 24 24 24 25 26 28 30 34
33 34 35 34 34 34 33 33 32 30 29 27 26 24 23 22 21 22 21 21 21 20 20 20 19 18 20 23 26 29 30 30 29 28 28 27 26 26 27 28 27 28 28 28 29 28 27 27 26 25 23 20 17 15 14 14 14 14 14 14 16 16 16 17 19 21 23 24 24 23 23 23 22 21 21 22 24 24 24 23 24 25 26 29 32 34 36 38
36 36 35 35 34 32 31 30 28 26 25 23 23 22 21 21 21 20 19 18 18 18 20 22 23 25 28 31 33 34 33 32 29 28 28 27 27 27 27 28 28 28 28 28 28 28 28 28 28 26 22 19 17 14 14 13 14 14 13 14 16 17 18 19 20 21 22 24 24 24 23 23 23 23 23 24 25 25 25 25 26 27 30 34 37 40 42 43
36 35 33 32 31 29 27 25 25 24 23 23 23 23 21 20 18 19 20 21 23 25 28 30 31 33 33 34 34 34 32 29 27 26 26 25 24 23 23 24 26 27 26 27 27 28 28 28 27 25 22 19 16 14 14 14 15 16 16 17 18 19 22 24 25 25 25 25 25 25 25 24 24 25 26 26 27 27 27 27 28 31 35 40 42 45 47 49
34 32 31 29 28 27 25 25 26 25 25 25 22 19 19 20 22 24 25 26 28 29 30 31 32 33 33 34 33 32 28 24 23 21 20 18 17 15 15 16 18 19 19 20 23 26 28 28 27 24 21 18 15 14 13 13 15 16 17 18 19 21 24 27 28 27 26 26 26 25 25 25 25 27 28 29 29 28 27 28 31 34 39 43 45 49 52 54
31 30 28 28 27 27 27 27 27 26 24 20 17 19 22 23 22 21 22 23 25 26 28 30 30 32 33 32 31 29 23 19 17 16 15 13 12 11 11 12 12 12 12 13 15 19 22 23 23 20 18 17 16 15 14 14 13 14 15 16 18 20 22 24 24 24 24 23 22 22 22 22 24 26 27 27 27 28 28 30 32 36 40 44 47 50 53 55
28 27 27 27 27 26 26 25 25 23 18 16 20 23 21 17 14 15 18 20 23 25 27 28 29 31 31 30 28 23 18 17 15 14 13 12 11 10 10 11 12 11 11 11 11 12 13 14 15 14 14 14 15 15 15 15 14 15 16 17 19 20 21 21 20 21 21 23 23 24 25 25 26 26 26 26 28 30 31 32 32 35 40 44 47 48 50 53
24 24 23 22 22 21 20 20 19 16 16 22 22 16 13 10 10 13 15 16 20 24 26 27 26 26 27 26 23 19 18 16 12 11 10 9 9 10 10 11 11 12 11 11 11 11 12 11 11 11 11 11 12 12 13 13 13 15 15 16 17 17 19 20 21 23 26 29 31 31 29 29 29 28 28 29 30 32 33 34 35 36 39 41 43 45 48 51
20 18 16 15 14 13 13 13 13 16 23 24 16 10 10 9 8 11 12 14 19 22 25 25 22 22 24 22 19 18 17 12 8 8 8 8 8 8 10 10 11 11 11 11 11 11 11 11 12 12 11 11 11 11 12 12 12 14 15 16 17 17 22 26 29 33 35 35 34 34 32 31 32 31 31 32 32 34 35 36 37 39 39 40 42 45 48 51
14 12 11 10 8 8 10 14 18 25 26 18 11 11 11 8 7 9 11 15 19 21 22 21 20 23 23 18 15 15 12 9 7 8 8 8 8 8 8 9 10 10 10 10 10 11 12 13 13 13 13 13 13 13 13 15 18 21 22 25 27 28 32 35 36 38 37 36 35 34 33 32 32 32 33 34 35 36 37 38 39 41 42 44 46 49 52 54
14 14 15 16 17 19 20 24 26 26 20 13 12 13 10 8 7 7 10 16 21 20 19 19 18 23 23 13 10 11 9 8 8 7 8 8 8 8 8 8 9 9 9 10 11 13 14 14 15 14 15 16 16 18 19 22 26 29 32 34 37 37 37 37 37 37 37 37 36 34 33 32 32 33 34 36 37 39 40 41 42 45 48 50 52 53 54 56
21 22 24 25 26 26 25 24 22 19 15 13 13 11 9 8 6 6 11 18 20 17 15 14 12 20 25 14 8 10 9 9 9 8 9 8 8 9 8 9 9 10 11 14 16 17 16 16 16 17 21 23 25 26 27 29 31 32 35 36 37 36 34 33 33 34 36 37 37 36 35 34 33 35 36 37 39 39 41 43 46 49 52 54 54 55 55 55
25 26 26 26 23 21 20 18 17 15 14 12 11 9 8 7 6 6 11 17 17 15 12 9 8 15 21 13 8 11 10 9 9 8 10 9 9 9 9 10 10 12 17 18 17 17 17 18 20 24 28 28 27 25 25 29 32 32 32 31 30 27 26 27 27 28 32 36 39 39 38 37 36 35 36 38 38 39 41 43 46 50 54 56 56 56 56 56
25 24 22 21 19 17 16 16 14 12 11 10 8 8 7 6 6 6 11 16 14 13 11 9 9 10 12 10 9 12 10 10 10 9 10 9 10 10 10 11 12 14 16 16 15 15 17 22 26 26 24 21 19 18 18 22 27 28 28 28 26 24 27 33 34 35 38 41 45 46 44 41 38 37 37 38 38 40 42 44 48 53 56 58 58 59 58 58
20 19 17 16 14 12 11 11 10 9 8 8 7 7 6 5 7 7 10 15 13 11 10 10 10 9 10 10 12 13 11 10 10 9 10 9 10 12 11 11 12 13 12 12 13 14 19 26 24 19 19 20 20 22 24 27 31 31 29 27 24 25 33 41 44 48 50 51 51 50 48 45 42 41 41 42 43 44 45 47 52 56 59 60 61 61 60 59
15 14 13 10 8 7 6 6 6 6 5 6 6 6 5 5 8 10 10 14 13 10 10 11 11 10 10 10 13 15 13 11 11 11 10 10 11 12 12 11 11 11 11 12 15 19 24 24 19 19 23 24 27 32 35 36 36 34 28 24 23 27 36 43 49 54 55 54 53 51 51 49 48 48 47 47 47 48 49 52 56 59 61 64 64 63 61 60
14 13 11 8 6 5 5 5 5 5 5 5 5 5 6 6 7 9 11 13 12 10 11 12 11 10 10 10 13 15 13 13 13 11 11 11 11 12 12 11 12 12 12 17 22 23 21 19 21 25 25 29 37 39 37 33 29 27 25 24 25 30 37 42 47 51 52 52 50 48 47 47 48 48 48 49 49 50 53 55 59 63 65 65 64 63 62 61
15 14 11 8 7 6 6 6 5 5 6 6 6 6 7 6 6 8 11 13 12 11 12 13 13 12 11 11 13 15 13 11 12 10 10 11 11 12 12 12 13 13 15 20 23 21 17 19 25 27 28 34 37 34 31 26 23 23 25 26 28 31 36 39 38 40 42 43 41 40 41 44 47 47 48 50 51 53 57 60 63 64 62 58 57 57 56 56
18 17 14 9 6 6 6 5 6 6 6 6 7 7 6 8 7 7 13 16 13 12 12 14 14 11 12 12 12 14 13 11 11 9 9 9 10 12 12 13 14 15 16 18 21 21 19 25 30 31 34 35 33 30 26 22 21 24 27 28 30 32 34 37 37 36 35 35 35 39 47 51 47 47 49 49 52 55 59 63 63 59 54 51 51 52 53 55
20 19 16 10 6 6 5 5 6 5 6 6 5 6 6 7 7 7 14 16 13 13 13 14 14 12 12 12 10 13 14 12 10 8 8 9 10 11 13 14 14 14 13 15 22 23 23 31 36 34 34 33 32 29 23 20 20 23 28 28 29 31 32 34 36 37 38 38 38 44 59 61 51 49 51 52 54 57 61 62 58 53 50 50 53 54 56 57
21 19 17 11 5 5 4 4 5 4 5 4 4 6 6 7 8 8 15 16 13 14 14 14 16 13 12 11 9 12 14 12 11 11 10 10 10 12 15 14 12 12 12 17 24 24 28 39 39 35 35 32 28 23 22 24 23 26 31 28 27 30 30 33 37 40 44 46 47 52 63 65 56 53 54 56 58 59 62 60 53 50 52 55 56 55 54 54
20 18 16 11 5 4 4 4 5 4 4 4 5 5 6 9 8 11 21 20 15 16 15 14 16 14 12 11 10 12 12 12 13 13 11 10 11 13 16 13 11 11 11 16 22 28 37 43 38 34 32 26 21 22 27 29 29 30 30 26 25 28 33 35 38 45 51 52 54 57 64 67 61 56 56 57 58 59 61 57 51 53 59 59 55 51 50 51
18 16 16 10 4 4 4 4 4 4 4 5 5 5 8 10 10 18 27 22 17 17 16 17 17 15 12 10 11 11 11 12 14 11 9 11 12 14 16 12 10 11 11 14 21 31 39 36 31 28 26 25 26 30 33 32 30 29 28 25 25 32 37 32 33 44 51 50 52 54 63 74 67 54 55 57 56 57 58 57 57 60 62 57 51 48 47 48
17 15 15 8 4 4 4 5 5 5 6 5 6 7 10 10 15 24 23 17 19 19 15 17 17 15 13 11 11 11 12 12 11 11 12 12 11 14 15 11 11 11 12 16 20 28 32 26 25 26 26 29 34 37 35 31 29 28 27 23 24 32 31 27 33 43 48 51 53 49 55 75 72 52 51 57 57 59 60 62 65 65 61 55 49 47 47 47
16 16 14 6 4 5 5 6 6 6 6 6 6 8 11 15 21 25 17 14 20 18 15 16 14 13 12 11 10 10 12 12 11 13 14 12 10 11 13 13 14 13 14 22 23 26 29 23 23 27 27 29 37 39 34 33 32 28 25 20 23 28 25 28 32 33 45 55 54 46 44 68 78 55 46 53 53 55 58 62 65 63 61 57 50 48 48 48
16 16 11 5 4 6 6 7 7 7 6 6 7 8 12 16 19 19 16 19 20 15 17 16 11 10 9 9 9 9 11 11 11 12 11 11 11 9 12 14 16 16 17 25 29 31 30 23 23 29 27 26 36 40 36 36 34 27 23 18 20 25 22 25 25 30 52 55 45 41 37 56 73 52 43 50 49 50 55 57 59 57 57 55 51 49 48 48
15 14 8 5 6 7 7 7 6 6 6 7 8 10 13 13 13 15 17 21 18 15 17 14 10 10 8 8 8 9 12 11 11 11 9 12 11 8 10 11 12 17 19 23 31 37 34 25 24 29 27 23 28 34 33 35 33 27 24 19 28 45 47 48 53 59 65 47 31 36 36 46 56 46 44 48 46 52 57 55 54 52 53 53 52 50 48 48
14 11 6 6 7 7 6 6 6 6 7 7 9 13 14 12 14 15 14 15 15 15 17 13 9 9 8 8 8 9 13 12 12 13 12 13 13 10 12 12 13 18 21 21 24 33 37 31 24 24 28 28 30 35 34 36 36 30 27 26 40 66 76 80 84 72 56 38 25 31 43 48 44 38 40 41 41 47 50 51 52 49 49 51 50 48 47 48
12 7 6 7 7 6 5 6 6 6 7 7 9 12 11 12 14 14 12 10 10 13 16 13 9 9 9 8 8 10 13 13 12 14 14 13 12 12 13 15 15 18 23 23 21 26 37 36 25 24 30 32 36 40 37 40 42 34 30 30 39 55 58 64 71 56 43 42 31 28 42 46 36 27 28 34 39 38 37 42 45 43 43 43 40 38 40 43
9 5 6 7 6 6 6 6 6 6 7 6 9 10 8 10 12 12 11 10 8 8 13 14 9 9 10 8 9 12 14 14 13 14 15 13 13 15 15 16 16 18 22 25 26 29 36 38 31 27 30 32 36 38 37 38 40 35 29 28 38 48 44 45 53 44 45 61 56 40 36 33 27 23 24 32 33 28 27 31 34 36 36 32 28 29 32 34
5 6 7 6 6 7 6 6 6 7 7 7 8 8 7 9 10 11 10 9 8 6 11 17 12 8 10 9 10 12 15 15 13 14 15 16 18 18 18 18 17 19 21 23 27 29 33 36 33 28 29 35 37 37 40 40 37 35 30 25 34 49 51 42 37 38 51 64 55 38 31 27 26 23 20 24 23 20 22 24 27 31 28 24 23 26 28 26
6 7 7 6 7 7 6 7 6 6 7 8 7 6 6 7 7 9 8 7 8 5 7 14 12 8 9 10 10 10 14 15 13 13 15 19 23 20 20 22 19 20 22 23 25 28 32 32 30 28 28 34 38 37 41 42 38 35 29 23 26 43 54 42 34 50 66 63 47 34 32 33 33 26 15 15 18 17 18 19 21 24 23 22 24 27 28 22
7 7 7 7 7 6 6 6 6 5 5 6 6 4 5 6 6 7 7 7 8 7 6 8 9 9 9 9 10 10 13 14 13 14 15 20 25 21 20 23 22 22 23 23 23 27 34 30 27 29 26 30 40 39 39 41 38 34 30 24 19 29 43 36 35 48 54 65 68 51 39 34 28 21 12 12 16 13 13 15 14 17 19 20 22 24 23 16
7 7 7 7 5 4 4 5 4 4 5 4 4 4 5 5 5 6 7 7 7 7 7 7 8 9 8 9 10 10 13 14 14 15 15 19 23 22 21 22 24 24 23 25 22 24 34 32 27 27 25 30 37 36 34 36 37 35 32 29 21 25 34 31 35 40 44 71 83 66 57 41 17 12 11 12 14 8 9 10 8 11 14 14 16 15 13 12
7 7 6 5 4 3 3 4 3 4 4 4 3 4 5 5 5 5 6 7 7 7 7 7 8 9 8 9 11 10 13 16 15 16 16 17 21 21 22 22 23 25 24 25 24 22 32 37 29 24 25 29 30 31 31 31 35 35 31 31 27 27 28 28 36 40 48 76 90 89 82 40 4 10 13 9 10 6 7 8 7 9 9 10 12 9 10 12
6 6 5 3 3 3 3 3 3 4 4 3 4 4 4 5 4 5 5 6 7 7 7 7 7 8 8 9 11 10 14 17 16 17 17 18 19 20 22 22 23 25 24 25 25 22 29 38 32 24 25 26 25 29 32 34 38 39 36 36 33 30 28 32 41 40 45 68 81 92 84 31 0 13 11 6 9 5 6 9 7 9 8 9 10 9 12 13
6 5 4 3 3 2 3 3 3 4 3 3 4 4 4 5 4 5 5 5 7 6 7 7 7 8 9 9 11 10 13 17 17 16 16 17 18 18 21 22 21 24 24 25 25 23 29 37 32 25 25 26 26 30 35 39 43 43 42 37 34 35 34 37 43 38 45 62 64 78 80 33 4 12 9 7 8 5 8 9 7 9 8 9 11 11 14 14
4 4 3 3 3 2 3 3 3 3 3 3 4 4 4 4 4 5 4 5 6 6 7 7 7 9 8 9 11 10 12 16 18 16 15 16 18 18 20 21 21 23 24 24 25 24 30 37 31 24 24 24 24 30 36 41 44 44 42 37 36 37 35 39 43 39 48 55 50 75 84 32 1 11 10 6 7 6 10 9 8 10 8 10 13 13 14 15
3 3 3 3 3 3 3 3 3 3 3 3 4 3 4 4 3 5 4 4 5 6 7 7 7 8 8 9 11 10 11 13 15 16 15 15 16 17 19 20 21 23 24 25 26 26 29 34 31 31 35 34 31 33 36 39 42 42 41 41 39 36 38 45 47 50 58 47 40 71 74 23 1 12 8 4 9 9 10 11 10 10 10 12 14 14 15 16
3 3 3 3 3 3 3 4 4 3 3 3 3 3 4 4 3 4 4 4 5 5 6 6 7 8 8 8 10 10 11 11 13 14 15 15 16 16 18 20 20 22 24 26 28 27 28 30 31 34 40 43 41 37 33 32 36 38 37 39 38 37 41 43 48 60 62 44 40 55 44 10 2 10 6 6 9 9 11 12 10 11 13 14 14 14 15 16
3 3 3 3 4 4 3 3 4 4 4 4 4 3 3 4 4 4 4 4 4 5 6 6 6 7 7 8 9 10 10 11 12 13 14 15 16 16 18 20 20 21 24 26 27 29 29 28 30 31 32 33 34 32 30 32 36 35 33 36 39 41 42 43 53 58 46 39 42 31 15 8 7 7 7 7 7 11 14 12 11 14 16 15 15 15 15 16
3 3 3 3 3 3 3 3 3 3 4 3 3 4 3 3 4 4 4 4 4 5 6 6 6 7 7 7 8 9 10 11 12 12 13 14 15 17 18 19 21 22 23 26 28 29 29 27 27 29 27 26 28 29 30 33 34 32 33 36 37 41 46 49 52 42 32 43 43 14 6 16 10 4 8 7 7 13 15 14 16 17 17 18 16 14 14 16
4 4 4 3 3 3 3 3 3 3 3 3 3 3 3 3 4 3 3 4 3 4 5 6 5 6 7 7 8 8 9 11 12 11 13 14 15 17 17 18 22 23 23 26 28 29 30 27 26 27 24 22 26 28 30 31 32 32 33 34 33 38 44 46 45 38 36 42 31 11 14 18 8 7 11 9 12 16 17 19 21 20 21 20 17 14 14 15
3 3 3 3 3 3 3 3 3 3 3 3 3 3 3 3 3 3 3 3 3 4 5 5 5 5 6 6 7 7 8 10 11 11 12 14 14 16 17 18 22 23 23 25 28 29 29 26 27 29 23 17 21 27 28 28 31 31 29 29 30 32 35 38 40 39 35 28 18 16 21 15 10 13 14 15 19 21 22 25 25 24 23 19 17 15 13 13
3 2 2 3 3 3 3 3 3 3 3 3 3 3 3 3 3 3 3 3 3 3 4 4 4 5 6 6 6 7 8 9 10 10 11 13 14 16 17 18 20 22 23 25 27 28 29 28 29 34 29 17 16 24 27 29 33 31 25 23 24 26 27 29 30 28 24 20 15 16 19 15 15 19 21 24 27 27 29 28 24 23 21 17 16 14 12 13
3 3 2 3 3 3 3 3 3 3 3 3 3 3 3 3 3 3 3 3 3 3 4 4 4 5 5 6 6 7 8 9 10 11 11 12 14 15 17 18 20 22 23 25 27 27 30 31 31 38 39 24 16 25 29 31 35 29 18 15 16 19 20 21 23 23 21 18 15 17 19 19 23 28 30 28 27 28 29 25 22 21 18 16 16 14 15 16
3 3 3 3 3 3 3 3 3 3 3 3 3 3 3 3 3 3 3 3 3 3 4 4 4 5 5 6 7 7 7 8 9 11 11 11 13 14 16 17 19 21 23 25 27 28 31 35 35 42 45 30 23 31 34 36 41 31 15 11 14 20 25 24 23 23 22 21 21 22 24 27 32 35 31 26 27 30 28 26 26 22 17 18 20 19 18 17
Wind_Speed
13 12 11 11 11 11 11 12 12 12 12 11 11 10 9 7 6 5 4 2 1 1 1 1 2 3 4 5 5 5 6 7 8 8 9 9 9 9 8 8 9 9 8 8 9 9 9 9 9 9 9 10 10 11 12 12 13 15 18 20 21 22 21 17 15 14 15 14 15 15 14 14 17 18 17 17 17 17 18 18 18 19 21 23 24 24 24 24
13 12 12 11 12 12 13 13 13 13 11 10 9 7 5 4 3 1 1 1 2 3 3 4 4 5 7 8 8 8 9 9 10 11 12 12 12 11 11 11 11 11 11 11 10 11 11 10 10 10 10 11 11 11 13 14 15 17 18 20 20 20 18 14 13 13 14 15 16 15 13 14 16 16 16 17 17 18 18 19 20 21 22 23 24 25 25 25
14 13 13 13 13 13 13 12 11 10 8 7 5 3 2 1 2 2 3 4 5 6 6 7 7 8 10 11 11 12 12 12 12 13 13 14 14 14 14 14 14 14 14 14 13 13 12 12 11 10 10 12 12 12 13 15 17 18 19 20 18 17 16 12 11 11 13 15 15 15 14 15 16 17 18 19 20 20 21 21 22 22 22 23 24 25 25 25
16 16 15 14 14 13 11 10 8 6 5 3 2 2 3 3 5 5 6 7 8 9 9 10 11 12 12 13 13 13 14 14 14 14 14 14 15 16 16 16 17 17 17 16 15 14 13 13 12 12 11 12 13 13 14 15 16 17 19 18 16 16 15 13 12 13 13 14 15 16 17 18 19 19 21 22 22 24 24 24 23 23 24 25 26 26 27 27
17 16 15 14 13 11 9 8 6 4 3 3 3 4 5 6 7 9 9 10 11 12 12 13 14 14 14 14 13 14 14 14 13 12 12 13 15 16 17 18 18 18 17 17 16 16 15 14 13 13 12 12 13 13 14 15 16 17 18 17 17 18 17 15 15 15 14 15 16 18 19 20 21 22 23 23 24 26 25 25 25 26 27 27 27 27 28 28
16 15 14 12 10 9 7 5 4 4 4 5 6 6 8 9 10 11 12 13 14 14 14 15 15 15 14 13 12 12 12 11 10 10 11 12 13 14 15 16 16 15 15 15 15 14 14 13 12 12 12 12 12 13 14 16 17 18 18 17 18 19 18 17 17 16 16 17 18 20 21 23 23 24 24 25 26 26 26 26 27 27 27 27 26 26 26 27
13 12 10 9 7 6 5 4 4 5 6 7 8 9 10 11 13 14 14 15 15 15 15 14 13 12 11 10 9 9 9 10 10 10 10 10 11 11 12 12 12 11 11 12 11 11 11 11 11 11 11 11 12 13 14 15 17 19 18 18 18 19 20 19 18 18 19 20 21 22 23 25 25 25 26 26 26 26 26 26 27 27 26 25 25 25 25 26
9 8 6 5 4 4 4 5 6 7 8 9 10 11 13 14 15 15 15 14 14 13 12 11 10 8 8 7 7 8 9 9 10 9 9 9 9 9 9 10 10 10 9 9 9 9 9 9 10 10 11 11 12 12 13 14 16 18 18 18 19 19 20 19 19 19 19 21 23 23 24 26 26 26 26 26 26 25 25 25 25 25 24 24 24 24 25 25
6 5 4 4 4 5 6 7 8 9 10 11 12 13 13 14 13 13 12 11 10 9 9 8 8 7 7 7 7 8 8 8 7 7 8 8 8 8 7 8 9 9 9 8 8 8 8 9 10 11 11 12 12 12 13 13 15 16 16 17 18 18 19 18 17 17 18 20 22 23 25 26 27 26 25 26 25 25 25 24 24 24 23 23 23 24 24 25
4 4 5 6 7 8 9 9 10 10 10 11 11 11 11 10 9 8 7 7 7 6 7 7 7 6 6 7 7 7 6 6 6 6 7 7 7 9 8 7 8 8 8 7 7 7 9 10 11 12 12 13 13 12 13 13 14 15 15 16 17 17 18 18 18 18 19 21 23 24 26 28 28 27 25 26 25 25 25 24 23 22 22 22 22 23 23 24
5 6 7 8 9 9 10 10 10 10 10 10 9 7 6 5 5 5 5 4 4 5 5 4 4 4 4 5 5 5 4 6 7 7 8 8 7 8 8 6 7 7 7 7 7 8 10 12 12 13 12 12 12 11 12 13 14 14 15 15 16 18 19 20 21 22 22 23 24 24 25 26 27 25 25 25 24 23 22 22 21 21 21 21 21 22 22 23
7 8 9 10 11 11 11 11 10 10 9 7 5 3 2 3 4 4 3 4 4 4 4 3 3 2 2 3 3 4 5 7 9 9 9 9 8 8 9 7 7 7 7 6 6 7 9 10 11 12 12 12 12 11 11 12 13 13 14 14 14 16 18 20 22 22 22 21 21 20 21 23 24 23 23 23 22 20 19 19 20 20 20 20 20 21 21 22
8 10 10 11 11 11 11 10 10 8 6 3 1 1 2 3 4 3 3 4 4 3 3 3 2 2 2 2 3 5 7 9 10 10 11 11 8 7 8 8 6 7 8 7 6 7 8 9 10 11 12 12 13 12 12 13 13 13 15 14 14 15 15 17 18 17 17 16 17 17 18 21 22 21 20 20 19 18 17 18 19 19 19 19 20 21 21 22
8 9 10 11 11 11 10 9 7 4 2 1 1 2 3 4 4 3 3 4 3 2 2 2 3 2 1 2 5 7 9 10 9 9 10 11 10 7 7 8 7 7 8 8 8 8 9 10 10 10 11 11 12 12 12 13 13 13 14 14 14 13 11 12 12 12 12 12 14 15 17 21 21 20 20 20 19 17 17 18 18 18 18 19 20 20 21 22
7 8 8 8 7 7 5 4 2 1 1 2 0 2 4 5 5 4 4 4 2 2 2 2 4 1 2 3 7 8 10 10 10 8 8 9 9 8 8 8 8 8 9 9 9 9 9 9 9 9 9 10 10 10 11 11 11 11 10 8 9 8 7 9 10 11 11 12 14 14 16 19 19 20 21 20 18 17 17 17 17 18 18 19 19 20 21 22
4 4 4 4 3 2 1 1 0 1 1 1 1 3 5 5 5 4 4 3 2 2 2 3 4 1 2 6 9 8 10 10 10 8 6 7 7 8 8 7 8 8 8 8 7 7 8 8 8 9 9 9 9 9 9 9 8 7 6 6 7 8 8 9 11 12 14 15 17 17 17 19 20 21 20 19 18 17 17 17 17 17 17 18 18 19 20 22
2 2 2 3 2 2 2 1 1 1 1 2 3 4 5 5 5 4 3 2 2 3 4 3 5 1 2 7 9 7 8 7 7 7 7 7 6 6 6 5 6 6 6 6 6 6 7 8 8 8 7 7 7 6 6 6 6 6 7 8 10 12 13 13 13 15 17 17 18 19 21 23 24 23 21 19 18 17 17 17 17 17 17 16 17 17 18 20
2 3 3 2 2 2 1 1 0 1 2 3 5 5 5 5 4 3 1 1 2 3 4 4 5 3 2 6 7 6 7 6 7 8 7 6 6 5 4 4 4 4 4 5 5 6 7 7 7 5 5 5 6 6 6 6 7 9 10 11 12 14 14 14 14 15 16 16 18 20 21 24 25 24 23 21 19 19 18 18 18 17 16 15 15 15 16 18
2 3 3 2 1 1 1 2 3 4 4 5 6 6 5 4 3 2 1 1 3 3 4 5 6 5 5 6 7 7 8 7 8 8 7 6 5 4 4 3 3 3 3 4 4 5 5 4 4 3 4 6 7 8 7 6 7 9 10 10 12 13 13 12 12 12 14 14 16 18 20 23 24 24 22 21 20 20 19 19 18 17 16 16 16 17 17 19
3 2 2 2 2 3 3 3 4 5 5 5 5 5 4 3 3 2 0 1 3 5 6 6 7 7 7 8 8 8 9 9 9 9 8 6 5 5 4 4 4 3 3 4 4 3 2 3 4 5 7 8 8 8 7 7 7 7 8 9 12 12 11 11 10 11 11 12 13 15 17 20 21 21 20 19 19 20 20 20 19 18 17 17 17 18 19 19
3 3 3 4 4 4 3 3 4 4 4 4 4 4 3 3 2 1 1 1 3 6 7 7 8 8 8 8 7 6 10 10 9 10 8 7 7 6 5 6 5 4 4 4 4 3 2 3 6 8 8 8 9 9 8 8 8 8 9 11 11 10 10 10 9 10 10 11 13 14 16 19 19 19 18 19 20 20 21 21 19 18 18 18 19 19 19 19
3 4 4 5 6 5 5 4 4 4 4 4 3 3 2 2 2 1 2 1 4 7 8 9 10 9 9 9 6 5 9 8 6 8 8 7 7 6 5 6 5 5 5 4 3 4 3 4 8 8 7 8 8 8 8 9 9 8 9 9 8 7 8 8 8 9 10 12 15 17 19 20 18 18 19 20 21 21 21 20 19 18 19 20 20 19 18 17
4 5 6 6 7 7 6 5 4 4 3 3 2 2 2 2 2 3 3 1 4 8 9 9 9 9 9 9 7 5 7 6 5 6 7 8 7 6 5 6 6 5 4 3 2 4 5 6 7 7 8 8 6 5 6 8 9 9 8 7 7 8 8 10 11 12 13 15 18 21 21 21 20 20 20 19 20 20 20 19 18 17 18 18 16 13 12 11
4 6 7 8 7 7 6 5 4 3 3 3 2 2 2 2 3 5 5 1 5 8 9 8 9 10 10 10 9 6 6 9 8 7 8 8 7 7 6 6 5 4 4 4 5 5 6 6 7 7 7 6 5 6 8 10 10 10 9 9 11 11 11 13 16 17 17 19 19 18 17 17 15 14 15 16 16 17 17 16 15 14 13 10 8 6 6 6
5 6 8 8 7 7 7 5 4 3 2 2 1 1 2 2 4 6 7 2 7 10 9 8 8 11 11 10 10 7 6 9 9 8 9 9 8 7 7 6 5 4 5 5 5 5 6 7 5 4 4 6 7 9 11 11 11 11 10 11 13 13 13 14 16 17 17 16 14 11 8 7 8 10 13 15 14 14 14 12 10 8 6 3 3 3 3 4
5 7 8 9 8 7 7 5 4 3 3 2 1 1 2 3 5 7 8 2 7 10 9 8 8 10 11 10 11 9 6 9 11 10 10 9 9 8 6 6 5 5 5 4 3 4 6 6 3 3 5 7 9 9 12 12 11 11 11 12 13 13 13 14 14 14 11 8 8 7 5 6 10 14 14 14 14 14 12 9 6 3 2 1 2 2 2 3
4 7 9 9 8 7 6 5 4 4 4 3 1 1 2 3 5 8 6 2 6 9 9 9 9 10 12 11 12 10 8 10 11 9 8 8 10 8 6 6 5 5 5 3 2 4 6 4 2 4 6 8 9 11 13 13 12 12 13 14 14 12 11 11 10 9 4 2 6 5 6 8 11 12 12 12 12 11 10 6 5 5 3 4 3 3 3 4
5 7 9 10 9 7 6 5 4 4 4 3 1 0 2 4 7 7 4 0 4 7 8 9 9 10 12 12 12 11 9 10 10 9 9 10 11 9 6 6 5 6 7 3 2 6 6 3 3 5 9 12 12 13 13 13 12 13 14 14 13 9 8 8 9 6 3 3 6 7 3 6 8 11 12 12 10 8 7 6 6 6 6 5 4 4 4 4
5 7 9 10 8 7 5 5 4 4 3 2 1 1 3 6 8 6 2 1 3 6 7 8 8 9 12 12 11 11 10 10 10 11 11 8 9 8 5 7 7 7 8 5 5 7 6 6 6 7 12 15 13 11 12 12 13 13 13 13 10 6 6 8 8 6 3 3 4 9 6 3 7 11 10 9 9 8 7 7 8 8 7 6 6 5 5 5
5 7 9 9 8 6 5 4 3 3 3 1 1 2 4 6 7 5 1 0 2 4 5 7 8 7 8 8 9 9 9 10 10 12 10 7 9 8 5 6 6 7 9 6 5 7 6 7 7 7 12 14 10 9 11 11 13 13 14 13 6 3 6 7 7 5 2 1 0 7 11 5 4 8 8 8 9 10 9 8 8 7 7 8 7 6 7 7
5 8 9 9 7 5 4 3 3 3 2 1 1 2 4 5 4 2 1 1 2 3 4 6 8 8 8 8 9 9 9 10 10 10 9 8 9 6 4 5 3 3 8 7 4 5 6 7 8 8 11 12 9 8 10 10 12 14 15 13 6 2 5 7 9 7 2 2 2 6 15 8 7 8 9 9 9 9 8 7 7 8 8 8 9 9 9 10
6 8 9 7 5 4 3 3 3 3 2 0 2 3 4 3 1 2 1 2 2 2 3 5 7 8 10 10 10 10 10 11 11 11 13 12 11 9 9 10 6 3 7 8 4 3 3 8 11 10 10 12 10 8 9 10 11 14 16 15 8 4 5 5 6 4 2 5 4 10 17 10 10 12 10 10 10 8 7 7 8 8 8 9 10 11 12 14
6 7 7 5 3 4 4 4 3 2 1 1 2 3 3 2 2 3 2 1 1 2 2 5 7 8 10 10 10 11 11 11 12 13 14 13 13 14 14 13 12 8 7 8 5 1 0 4 11 12 11 13 12 10 11 11 12 16 17 15 8 3 4 2 3 2 4 8 12 16 15 7 9 11 11 12 11 8 7 9 9 9 10 11 12 14 15 17
6 6 5 4 3 4 4 3 2 0 0 1 3 2 2 2 3 3 3 4 3 3 2 4 8 8 9 10 10 11 11 11 12 12 12 10 10 14 14 13 13 11 8 7 6 4 1 2 10 14 12 12 12 11 13 10 9 15 16 12 7 4 3 1 3 2 4 11 18 16 6 4 9 12 14 14 11 9 10 10 11 13 13 14 15 16 17 19
5 4 4 4 4 4 3 1 0 1 2 2 3 3 2 3 5 4 3 4 4 4 1 2 7 7 8 10 11 11 10 11 12 11 10 10 11 13 13 13 14 12 10 8 7 5 2 2 9 13 12 11 10 10 12 9 7 11 13 11 7 4 1 2 4 6 7 9 11 8 5 10 15 16 14 12 10 11 13 14 14 15 15 17 18 18 19 22
4 3 4 4 3 3 1 1 1 2 3 3 3 3 4 5 6 5 4 4 4 6 3 1 5 7 7 9 10 10 10 10 11 11 10 10 12 13 13 13 13 13 12 10 9 6 1 1 7 12 11 9 9 10 10 9 7 9 10 11 8 2 2 4 4 6 5 3 5 6 9 15 16 13 10 8 11 14 15 16 16 16 18 19 20 20 22 25
2 3 2 2 2 2 0 2 2 3 4 4 3 4 7 8 7 5 4 4 4 6 6 3 4 7 8 9 10 9 8 9 10 10 10 9 10 12 12 12 12 13 12 11 10 8 3 1 5 10 10 8 8 9 8 8 9 8 9 11 10 4 4 3 3 3 3 1 5 7 12 17 14 9 10 11 14 16 16 17 17 18 20 21 22 23 25 27
2 2 2 3 2 2 0 3 3 4 5 5 6 8 9 9 7 6 5 4 4 5 7 6 6 8 9 10 10 9 8 8 9 9 9 9 8 10 11 10 11 12 11 11 10 9 5 2 4 9 10 7 6 7 7 7 8 8 9 10 10 3 4 4 3 2 2 1 4 7 12 17 15 10 13 15 16 17 17 18 19 20 22 24 25 26 27 29
1 2 3 3 1 1 2 5 6 7 7 6 8 10 10 9 8 6 5 5 5 6 7 8 8 8 10 10 10 10 8 8 9 9 9 9 7 8 10 10 10 10 10 10 10 9 5 3 4 7 9 7 5 6 7 7 7 9 10 12 11 5 4 7 4 3 2 1 4 5 6 11 14 13 16 16 16 18 19 20 22 23 24 26 27 28 29 29
3 4 3 2 2 3 4 8 9 9 8 7 9 11 10 9 8 7 6 6 6 6 7 9 9 9 10 10 9 10 9 8 9 9 8 9 7 7 8 9 9 9 9 9 10 9 5 3 6 8 7 5 5 6 7 7 7 9 12 13 13 10 7 7 6 7 4 3 1 1 5 17 18 14 16 16 17 20 21 23 25 25 26 27 28 29 29 28
3 3 3 4 5 6 7 10 11 10 9 10 11 12 10 9 9 8 7 7 7 7 8 9 9 9 10 9 9 10 9 7 8 8 8 8 8 6 7 8 8 8 9 9 9 9 5 4 8 10 7 7 6 6 7 8 7 10 12 13 13 13 10 5 4 7 7 6 4 2 6 21 19 12 15 17 18 22 23 25 27 27 27 28 29 29 29 30
4 3 5 6 7 10 12 12 12 10 10 12 12 11 10 9 9 9 9 8 7 8 8 9 10 10 10 9 9 10 9 6 7 7 7 8 7 6 6 7 7 7 8 8 8 8 5 5 10 11 8 8 7 6 7 8 9 11 12 13 14 13 10 4 2 6 7 9 9 4 6 19 20 15 18 20 21 24 24 26 29 29 29 28 28 29 29 32
6 5 7 7 8 12 13 11 11 12 12 13 12 11 10 9 9 9 9 9 8 8 8 9 9 10 10 9 9 10 9 6 6 7 7 7 7 7 6 6 7 7 8 7 8 8 5 5 10 13 10 8 7 7 7 8 11 13 14 15 14 13 13 9 9 12 9 12 13 4 5 21 24 19 20 23 26 27 26 28 30 31 30 28 28 30 31 33
6 7 9 10 10 13 13 10 10 12 12 12 11 10 10 10 10 9 9 10 9 9 9 9 9 9 9 9 9 10 9 7 6 6 7 7 7 6 6 6 7 7 8 8 8 8 5 6 9 10 9 6 5 5 7 10 13 15 17 17 16 15 14 13 14 13 9 14 14 7 9 26 27 22 26 28 27 29 29 29 32 32 31 29 29 32 33 34
7 8 11 12 11 12 14 13 11 11 12 12 11 10 10 10 10 9 10 10 9 9 9 9 9 9 9 9 9 9 8 7 7 6 7 8 7 6 6 6 6 8 8 8 8 9 8 8 8 6 4 3 5 7 10 14 16 18 19 18 18 18 16 15 14 11 11 14 15 15 20 33 33 28 31 28 26 31 32 31 33 33 30 30 32 35 35 36
8 9 12 14 13 11 13 15 12 11 11 11 10 10 10 10 10 10 10 10 9 9 9 9 9 9 9 9 9 9 9 8 7 7 7 7 7 7 6 7 7 8 8 9 10 10 10 10 10 11 10 10 13 15 15 18 20 21 20 19 21 22 21 19 15 17 19 18 22 30 35 39 39 34 31 29 28 32 35 34 34 33 31 32 35 37 38 39
9 9 11 12 12 12 12 14 13 11 11 11 10 10 10 10 10 10 9 9 9 9 9 9 9 9 9 10 9 9 9 9 8 8 8 8 8 8 8 8 8 8 9 10 10 11 12 14 12 14 16 16 17 18 17 19 23 23 22 22 23 24 25 26 24 26 26 19 25 37 37 37 43 40 34 34 32 33 38 38 37 35 33 34 38 40 41 40
9 9 10 11 12 12 13 13 12 11 11 10 11 11 10 10 10 10 10 9 9 9 9 10 10 9 10 10 9 9 10 9 9 9 9 8 8 8 9 9 9 9 10 10 11 12 14 15 14 16 19 18 17 19 19 20 23 25 25 26 26 27 30 33 32 33 31 27 33 40 38 41 47 41 35 35 31 33 39 40 39 38 36 37 41 43 43 41
11 11 12 12 13 13 12 12 12 12 10 10 11 11 11 11 11 11 11 10 9 10 10 10 10 10 10 10 10 10 10 10 10 10 10 10 9 9 10 10 9 10 10 11 12 13 14 15 15 19 22 19 15 16 19 21 24 28 29 29 28 29 32 35 36 34 33 36 41 42 42 47 45 36 33 32 29 33 39 41 41 38 37 40 44 44 43 41
12 13 12 11 12 12 11 11 11 11 11 10 11 11 12 12 12 12 11 11 10 10 10 10 10 10 10 11 11 10 10 11 11 11 10 10 10 11 11 11 11 11 12 12 13 13 15 17 17 20 25 23 14 11 17 21 25 31 35 34 32 32 33 35 35 33 32 36 37 37 42 47 39 32 32 32 31 35 39 40 40 38 40 44 44 43 41 40
12 13 12 10 10 12 11 11 11 11 11 11 11 12 12 12 12 12 12 12 11 11 10 10 11 11 11 11 12 12 11 11 11 11 11 12 12 12 12 12 12 13 13 13 14 15 16 18 20 21 26 27 18 14 20 25 30 37 36 27 22 23 27 31 32 31 30 31 33 35 42 44 38 34 35 34 32 34 37 39 40 41 43 44 42 41 40 40
12 13 13 10 10 12 12 11 12 11 10 11 12 13 12 13 13 12 12 12 12 12 12 11 11 12 12 12 12 12 12 12 12 13 12 13 13 13 14 14 14 15 16 15 16 17 16 19 21 19 23 28 25 22 28 31 30 27 19 14 18 22 25 28 31 31 28 28 32 37 40 40 38 35 34 33 32 34 37 39 41 43 43 41 40 41 42 42
Wind_Direction
139 138 134 131 129 127 123 121 120 120 117 115 114 114 117 119 120 123 126 130 140 191 259 265 267 271 270 272 273 274 279 288 292 290 287 280 268 261 261 263 265 266 266 268 271 273 272 273 276 276 272 268 265 260 253 246 238 232 233 238 246 256 262 271 280 280 283 284 280 277 274 260 249 247 249 255 261 267 272 272 273 275 278 282 284 285 283 280
131 130 128 126 125 123 121 121 122 122 122 122 123 125 128 131 135 151 201 264 276 279 276 278 279 280 281 284 287 286 285 286 285 284 282 276 266 259 258 262 267 271 271 270 271 273 275 276 279 280 278 271 264 257 251 247 242 238 238 244 255 265 272 283 288 287 288 283 278 274 266 254 249 252 260 267 274 278 279 278 278 277 276 278 279 278 277 273
132 131 130 128 125 124 123 124 125 126 128 129 136 142 154 193 251 272 283 283 284 284 284 288 290 289 290 291 291 292 290 288 286 283 279 272 263 258 258 264 269 273 273 272 271 272 275 278 280 282 281 277 270 262 255 251 247 242 243 251 264 273 277 283 286 288 289 283 277 268 260 255 258 266 273 278 283 284 283 282 282 280 277 277 274 272 269 266
133 133 133 132 131 132 133 135 137 140 146 158 181 220 251 266 276 279 282 284 284 286 289 291 292 291 290 290 291 292 291 290 289 284 278 268 259 258 263 269 274 276 275 273 271 270 272 276 279 282 281 278 274 269 262 254 249 243 247 260 272 275 274 276 280 285 288 285 277 265 261 263 267 273 277 280 283 283 283 282 281 280 278 276 273 269 267 266
134 136 138 140 142 144 147 150 156 168 189 219 246 262 272 279 281 283 286 286 287 287 288 288 287 287 287 288 289 290 291 291 290 283 277 269 262 263 268 273 276 277 276 273 273 272 273 274 276 278 278 276 272 270 261 250 247 248 255 265 267 266 268 271 277 281 282 282 277 269 266 268 272 276 278 281 282 282 283 282 281 280 279 278 274 272 270 269
141 143 146 148 151 153 159 168 184 213 239 259 268 275 280 282 284 286 287 287 288 287 286 286 286 286 287 288 289 290 290 290 290 288 284 278 273 272 274 277 279 279 277 275 275 275 275 275 276 277 276 275 271 266 259 251 249 254 260 261 258 261 264 268 272 275 275 274 273 271 270 271 274 277 279 282 282 282 281 280 280 279 278 276 274 273 272 271
147 149 152 154 159 167 181 207 231 252 264 271 276 281 283 284 286 285 285 286 286 287 288 288 288 288 289 291 292 292 291 290 293 295 293 290 286 284 283 284 286 285 284 281 278 277 278 279 281 281 278 275 272 267 263 259 258 261 263 261 259 262 265 267 269 270 271 270 269 270 271 272 275 277 280 283 282 279 277 277 277 276 275 273 271 270 270 270
148 152 159 167 183 205 229 249 260 267 271 277 282 285 286 286 286 286 287 288 289 291 292 292 292 292 293 297 295 294 297 297 296 296 297 298 296 295 292 291 293 292 290 287 282 278 279 282 282 282 279 275 273 270 267 263 262 264 265 264 264 265 267 268 268 270 270 268 266 267 270 273 275 278 280 280 279 277 276 276 275 273 271 269 269 268 268 269
160 170 188 209 230 245 253 260 265 271 277 284 287 288 289 289 290 292 294 296 299 299 296 294 293 294 295 294 294 298 302 301 300 303 304 305 305 305 301 295 294 292 291 290 285 280 277 278 279 280 279 275 273 270 268 264 260 260 260 261 265 267 269 270 269 269 266 264 264 267 271 274 277 277 276 275 275 277 278 276 272 268 266 266 267 267 269 270
190 210 230 241 250 256 262 268 272 279 285 289 291 293 296 300 305 308 310 312 313 309 300 296 295 293 291 290 296 301 308 315 314 314 313 312 311 308 306 298 290 288 290 291 283 275 270 271 273 275 276 275 273 270 267 263 259 258 256 257 261 265 268 269 269 268 266 266 268 271 275 277 278 275 271 273 274 276 277 272 267 264 263 264 266 268 269 271
234 247 256 263 267 272 276 280 284 288 293 297 300 306 315 324 330 330 330 333 334 332 323 321 315 300 290 294 303 305 316 327 321 317 314 314 313 305 306 305 292 289 294 294 280 268 264 266 270 272 272 273 272 270 267 264 262 262 260 260 260 261 264 267 270 272 274 275 275 277 279 278 276 272 271 273 275 274 273 269 265 263 263 264 266 269 271 273
268 275 279 282 282 284 284 285 289 294 300 307 313 332 0 354 345 334 332 344 346 348 353 4 4 324 303 306 306 306 322 329 323 318 314 315 318 307 307 310 299 295 300 300 287 275 271 268 267 268 266 267 268 268 268 267 265 265 266 265 262 264 267 270 273 276 279 281 282 281 277 273 272 271 272 274 274 272 269 265 263 262 263 265 267 269 271 273
283 285 286 287 286 286 285 286 290 296 304 314 350 29 26 355 341 328 333 348 344 351 8 22 17 334 311 318 312 309 318 327 324 318 316 317 320 313 308 311 307 301 301 303 298 285 277 271 267 265 263 265 266 266 267 267 267 268 271 271 268 268 270 272 272 275 279 279 280 278 268 268 272 274 274 273 271 268 265 263 261 261 263 266 268 270 272 273
284 285 285 284 284 283 282 285 290 298 303 146 111 10 1 348 340 339 348 351 340 350 5 4 351 321 231 340 325 317 318 323 325 324 321 318 318 319 314 316 316 308 303 301 296 287 280 276 273 271 271 271 271 271 270 269 272 273 275 276 274 271 267 268 268 274 282 277 279 280 267 269 275 275 275 272 268 264 260 260 260 263 266 269 271 273 274 275
285 285 287 287 287 286 284 289 301 310 148 149 176 334 343 339 341 354 356 355 350 0 4 0 349 312 158 356 331 321 324 324 327 332 325 316 317 322 321 319 316 309 304 297 290 287 283 279 276 276 275 273 272 271 270 274 280 283 282 278 278 278 271 273 276 283 289 286 287 282 268 270 275 274 274 270 266 261 258 260 262 265 268 271 274 275 276 276
295 297 302 311 320 330 341 5 56 136 163 187 290 315 330 333 344 355 356 3 34 42 19 3 354 313 178 348 337 325 329 326 328 338 332 323 322 321 317 311 308 304 299 292 285 279 275 275 274 274 272 270 270 268 269 273 277 285 288 281 284 291 289 288 289 289 291 291 286 277 268 271 275 275 274 270 266 263 261 262 262 265 267 269 271 272 273 273
335 339 346 357 6 24 46 85 131 164 221 264 294 310 323 329 340 353 0 30 80 64 33 12 5 349 244 332 339 329 333 334 341 355 355 344 334 319 313 310 311 307 299 289 278 272 272 273 273 274 276 278 281 282 283 281 279 284 290 290 290 293 294 293 292 288 288 285 279 274 270 271 273 274 272 270 269 267 264 264 262 263 265 268 270 269 269 269
2 6 12 21 28 49 79 114 211 261 276 289 303 313 321 324 335 349 348 92 85 68 35 19 17 21 322 337 343 345 354 358 2 5 358 349 343 331 327 328 328 319 301 288 278 272 270 275 278 279 288 300 310 315 313 304 300 301 304 306 302 300 300 297 293 287 285 282 276 272 270 269 270 269 269 270 269 268 268 268 267 266 269 271 271 269 267 266
24 26 31 26 16 13 267 277 278 280 288 296 308 314 317 319 325 329 278 102 51 43 34 24 25 28 14 358 358 2 359 356 1 0 353 348 346 346 349 346 344 337 304 289 286 273 269 292 301 301 323 336 339 338 332 319 311 313 320 324 320 317 313 304 299 292 286 283 276 271 269 268 268 268 269 269 268 270 271 272 272 273 275 276 273 271 267 264
43 35 16 347 317 303 290 284 283 289 296 301 309 310 313 316 303 303 263 102 21 33 44 34 28 23 15 8 3 358 351 352 3 0 353 354 356 359 4 0 353 345 321 301 297 294 302 343 358 4 4 5 5 2 359 349 338 334 335 329 323 323 316 306 305 299 293 286 278 274 272 270 270 270 271 271 272 273 273 275 277 280 283 283 279 275 270 266
42 20 354 338 325 320 321 315 310 308 309 308 307 304 305 305 287 281 117 107 39 44 46 36 29 21 13 8 359 356 354 352 359 357 352 0 5 6 5 3 355 340 336 330 336 358 349 355 17 22 20 20 18 16 13 3 349 335 326 318 315 318 315 310 312 306 299 295 291 289 284 279 277 278 277 277 277 277 278 279 281 285 287 285 281 277 274 272
29 9 358 349 339 338 340 339 330 318 315 310 305 305 286 265 250 194 174 151 45 40 37 34 27 18 15 11 2 9 5 347 336 347 356 5 5 6 4 1 355 344 349 1 8 3 347 8 26 25 20 24 22 20 11 352 340 327 319 320 317 321 320 314 316 310 300 298 298 296 292 287 284 283 281 281 281 281 281 281 284 286 286 283 281 280 278 276
26 11 7 357 345 343 343 346 336 322 323 319 310 300 264 242 231 195 190 190 40 37 36 33 24 18 18 13 6 4 3 353 336 343 1 6 4 7 1 356 359 1 11 21 338 336 358 21 23 16 15 20 14 4 346 330 336 340 336 345 342 332 326 315 310 304 295 292 292 293 291 286 284 284 283 284 283 281 280 282 285 285 284 285 285 284 282 279
26 14 10 360 351 347 346 350 344 337 334 318 303 277 250 224 213 190 184 157 42 38 33 30 24 19 14 11 9 354 351 357 349 354 12 11 6 9 8 5 13 21 18 4 335 343 21 36 25 17 12 2 338 325 323 326 343 350 346 345 339 330 324 316 311 306 301 296 295 295 291 282 283 288 288 287 285 284 284 284 285 284 283 288 294 297 299 297
20 12 8 1 356 350 347 350 352 356 335 300 289 271 244 215 203 182 181 152 41 31 22 22 19 14 10 8 7 357 354 357 354 7 18 17 14 15 21 19 16 14 2 355 339 356 41 51 32 5 340 333 323 320 332 344 351 354 350 343 338 332 324 317 312 309 304 301 303 305 293 284 296 300 295 293 292 289 286 286 286 284 280 290 317 320 315 306
13 5 3 3 358 352 349 349 353 352 338 326 324 277 220 204 192 176 184 178 29 18 10 11 10 10 6 6 10 9 360 355 4 12 9 16 20 18 19 5 3 12 6 356 339 9 50 57 27 334 323 326 323 337 358 3 5 6 0 350 342 332 324 323 318 311 301 299 316 308 269 278 299 301 301 298 297 293 288 291 283 250 230 263 289 284 274 274
8 0 360 0 358 356 353 352 351 341 333 334 324 259 188 186 177 175 191 240 358 0 5 9 9 6 1 6 12 13 7 0 9 7 357 16 23 18 10 352 359 20 10 359 15 62 77 83 21 341 335 334 343 7 14 12 13 8 357 349 343 333 332 341 339 329 310 316 1 334 263 272 293 305 314 305 300 297 289 278 244 225 249 269 264 252 246 258
3 360 358 356 355 356 356 351 342 329 327 323 321 155 166 162 160 171 184 163 352 352 3 10 9 359 355 4 7 6 11 8 4 2 4 18 17 9 358 346 359 18 13 14 102 105 98 78 17 357 2 10 17 24 18 12 12 3 354 346 341 340 347 359 4 10 82 109 40 17 291 261 286 302 310 302 297 298 283 259 246 252 265 263 253 251 252 262
355 357 355 353 352 355 351 343 331 320 320 319 346 122 154 151 155 169 169 103 347 346 1 8 8 357 353 359 358 357 6 6 6 11 12 10 3 360 348 344 360 16 21 37 97 106 85 41 27 15 18 24 27 27 18 16 13 3 354 342 335 345 354 7 18 31 90 124 40 21 5 276 286 299 301 299 298 300 289 267 256 256 263 264 257 256 263 272
345 350 352 352 352 352 347 339 333 325 321 330 83 123 145 150 160 168 152 207 317 347 359 2 6 5 1 355 348 353 4 8 14 18 14 7 4 4 358 354 357 16 33 53 88 89 67 36 33 28 21 21 27 27 18 18 13 2 355 347 339 352 9 27 28 23 40 293 26 17 359 329 282 303 307 314 315 308 295 272 258 264 275 273 266 268 275 279
334 344 349 351 354 357 358 351 341 329 326 350 120 128 141 151 170 163 134 226 303 350 349 355 1 4 6 1 355 359 4 8 15 21 18 15 14 19 36 27 356 19 45 62 92 87 66 39 34 27 16 16 26 27 15 14 10 1 0 7 20 19 18 25 16 24 45 302 257 337 338 315 246 278 304 318 322 309 290 273 272 282 282 273 269 274 278 283
330 342 347 352 359 4 359 342 329 321 323 163 144 135 140 141 118 97 120 233 287 339 343 359 3 2 6 3 0 4 4 6 11 14 16 18 19 31 50 49 51 58 43 49 88 131 71 42 31 19 10 15 20 19 12 6 3 2 9 23 38 29 19 12 356 7 277 277 281 315 325 303 251 271 295 310 318 308 285 277 280 282 277 271 269 273 279 284
330 342 348 355 357 350 340 323 313 313 313 169 154 154 168 153 83 87 88 97 356 352 352 3 2 3 5 360 360 6 7 9 13 14 18 20 21 33 45 45 44 50 43 43 62 140 164 31 21 16 13 11 9 11 10 2 3 9 16 28 43 54 43 352 296 327 287 289 306 314 318 295 271 291 300 305 313 308 292 285 282 283 284 280 276 279 285 289
332 344 351 351 339 338 333 311 300 38 127 169 165 175 198 154 130 121 85 73 49 17 358 3 3 1 358 359 5 7 5 10 16 16 16 18 27 39 48 47 42 46 49 46 50 59 107 358 7 12 12 5 2 6 7 2 2 9 16 27 42 72 83 243 254 262 273 293 307 312 305 268 290 305 305 303 303 299 297 293 288 290 291 288 287 290 293 294
335 346 345 339 337 344 344 306 16 117 139 157 171 193 189 141 137 135 93 71 45 24 7 349 3 0 354 359 6 6 7 12 12 11 11 18 32 38 44 47 43 41 43 42 43 48 80 13 5 5 3 2 358 356 3 7 2 3 12 20 25 52 81 297 261 254 271 296 303 292 259 277 295 305 304 297 293 296 300 298 293 293 292 292 295 298 297 298
337 345 340 339 348 6 24 130 115 137 147 141 159 188 167 140 131 126 94 71 46 28 29 346 356 2 359 4 9 8 10 10 6 8 11 19 33 35 37 42 39 38 40 40 38 32 23 8 3 358 357 357 351 350 358 8 8 4 10 11 3 330 272 319 288 269 294 319 288 273 277 292 304 312 307 293 297 304 304 302 298 294 294 296 299 301 299 300
339 348 359 10 16 14 86 146 126 139 143 141 156 148 132 124 117 115 92 67 49 29 30 23 357 3 6 9 13 12 12 11 6 9 15 22 30 30 31 36 35 36 36 33 31 27 13 292 335 349 352 346 342 344 344 355 9 10 11 9 355 302 257 299 297 305 359 332 274 272 279 292 299 301 308 310 308 310 308 304 301 298 298 300 301 301 299 300
346 18 60 50 16 348 179 147 137 130 121 129 143 127 114 113 106 101 84 58 43 27 27 24 10 7 8 8 11 14 14 14 11 13 21 26 25 24 28 32 31 30 29 27 22 18 14 341 326 340 346 340 327 330 332 340 356 0 1 1 356 325 247 291 319 324 337 310 287 279 277 286 284 282 309 316 309 310 309 304 303 303 302 302 302 300 299 301
47 66 69 57 32 14 126 139 132 118 113 122 129 115 106 106 98 86 72 53 36 24 21 20 15 9 7 7 10 13 13 15 18 20 23 24 22 22 24 25 26 26 22 19 13 11 10 354 344 338 335 331 307 308 323 326 334 344 346 350 359 2 283 293 286 233 223 202 290 298 287 285 287 298 312 310 304 308 308 306 306 304 303 302 300 298 299 300
85 74 72 78 88 99 133 132 111 102 115 124 114 105 102 99 88 72 59 47 33 25 20 16 14 10 7 9 10 11 14 15 17 21 23 23 21 18 20 21 20 17 13 10 6 3 352 316 338 340 329 319 303 304 315 316 319 328 334 342 350 351 327 303 265 236 222 185 217 67 289 290 298 307 302 299 304 309 310 308 305 302 300 299 297 298 299 299
91 88 108 114 109 107 109 105 97 104 121 115 102 97 94 86 74 63 50 40 33 26 21 16 13 10 8 11 10 10 14 13 13 17 17 17 16 16 17 14 11 10 7 3 357 353 338 292 321 332 325 306 295 297 307 309 308 314 325 332 334 338 337 326 262 241 226 219 226 156 275 293 305 309 296 299 307 311 311 306 302 299 298 297 297 299 299 298
101 114 121 118 114 102 89 88 100 114 114 101 93 87 81 72 63 55 41 35 33 25 22 16 12 11 9 10 9 7 9 6 7 13 10 8 10 8 8 4 2 1 355 353 353 348 326 289 310 324 320 301 291 288 294 302 302 305 312 316 321 325 319 303 244 256 247 241 251 220 255 289 304 308 299 303 309 313 312 303 299 297 296 297 297 297 297 297
106 120 118 112 108 97 91 94 105 107 98 91 86 77 71 63 53 47 38 34 31 24 21 16 12 12 9 7 6 5 6 2 358 1 0 0 359 357 359 352 346 347 346 345 347 345 326 294 311 322 321 302 282 275 282 292 294 294 299 305 309 308 302 292 271 273 268 246 245 196 234 282 300 309 301 304 310 316 314 303 299 297 296 298 297 296 297 297
115 120 112 105 100 98 99 97 92 91 87 82 79 72 64 55 48 41 36 34 29 26 22 15 11 10 8 8 5 2 4 1 352 350 349 352 349 346 344 335 331 336 336 335 339 341 327 304 311 322 332 326 296 276 282 289 289 290 293 296 298 298 296 289 278 274 266 251 241 188 238 282 299 304 299 303 309 314 312 303 299 297 297 298 298 299 299 298
120 120 111 102 97 99 102 95 81 76 75 74 72 67 59 51 44 39 36 32 28 26 20 13 11 8 6 6 2 359 359 356 350 345 341 342 338 333 328 319 319 323 325 328 332 330 319 308 304 298 295 290 279 281 292 295 291 289 290 291 293 294 289 283 276 260 251 252 236 218 257 288 300 298 296 301 305 309 309 303 299 297 294 296 301 302 301 299
114 117 112 106 101 98 97 92 83 71 68 68 67 62 57 50 44 40 37 31 26 23 17 12 11 6 4 3 0 358 353 347 346 341 337 333 327 324 317 307 305 312 318 319 321 321 312 307 302 286 274 276 282 288 295 295 288 285 289 291 289 289 286 282 267 250 255 258 253 258 271 287 296 299 300 299 298 303 306 305 304 298 290 294 302 304 303 300
117 116 110 107 107 102 91 88 84 72 65 64 63 61 57 51 47 43 38 32 25 22 14 10 7 4 3 359 356 355 349 342 339 335 331 326 321 316 306 298 294 299 310 313 314 314 307 305 303 291 291 296 296 295 293 287 282 284 289 289 287 287 283 276 265 263 268 260 263 278 283 283 292 302 304 301 300 301 302 306 308 301 293 294 302 306 305 302
114 115 109 104 105 101 91 87 83 73 65 61 61 61 56 51 47 41 37 31 25 21 13 7 4 2 0 356 351 350 345 338 333 330 325 319 314 307 301 296 287 289 301 306 308 308 302 301 303 299 299 302 300 296 289 280 281 286 287 286 287 286 281 278 276 278 276 261 265 283 288 284 291 302 307 307 305 298 298 304 307 303 297 297 303 307 305 303
101 104 104 103 102 96 90 87 81 74 67 60 59 59 54 51 46 39 35 29 23 20 13 5 2 359 358 354 348 344 341 336 330 325 320 314 309 305 300 294 285 286 293 299 302 304 300 300 305 305 302 304 303 290 281 283 290 290 288 286 286 284 281 279 280 280 275 267 272 283 285 284 294 306 309 310 305 297 298 303 304 302 298 300 305 306 304 303
101 99 95 96 99 96 90 85 79 73 66 60 58 56 52 48 44 37 31 26 21 17 11 5 1 359 356 352 347 341 336 333 328 322 317 310 305 303 297 291 286 285 290 296 297 299 298 298 306 307 303 307 313 288 280 292 298 293 290 289 286 283 279 276 275 274 270 271 281 286 283 286 302 314 309 304 302 298 299 301 302 302 301 302 305 304 304 306
104 102 94 92 95 95 90 83 78 71 64 59 55 52 50 44 40 35 27 23 18 12 8 2 358 357 353 348 345 339 332 326 324 322 316 308 303 300 295 292 287 283 287 292 292 295 296 297 305 310 305 306 313 305 298 304 302 296 294 293 287 279 274 272 273 273 272 278 286 284 281 291 310 315 305 302 303 301 300 301 302 303 303 304 305 306 308 310
101 100 98 96 93 92 88 79 75 70 62 59 52 48 46 39 36 32 25 21 16 9 5 358 356 356 351 345 341 336 330 323 319 319 316 310 304 298 293 290 287 284 285 286 289 293 295 297 302 307 302 302 307 311 311 312 307 299 296 301 304 298 287 278 274 274 278 283 283 282 287 301 311 308 303 305 305 303 302 301 302 304 307 309 311 312 314 314